AOJ14AL CYTZ-KTEB

Flight info

Callsign AOJ14AL
Flight time 0h 49m
Altitude 41000
Route MAVAN2 BMPAH DCT AEVON DCT EXTOL DCT HNK/N0444F170 V167 WEARD/N0437F160 V489 COATE/N0431F150
Aircraft C750/M-SBDE3FGHRWXY/S

Departure

Time 2026-04-21 19:22
Airport Billy Bishop Toronto City Airport (CYTZ)

Arrival

Time 2026-04-21 20:12
Airport Teterboro Airport (KTEB)
Time Latitude Longitude Altitude Speed Heading
2026-04-21 19:09 43.63239 -79.39457 256 ft 0 kts 204°
2026-04-21 19:18 43.63237 -79.39458 256 ft 2 kts 202°
2026-04-21 19:18 43.63235 -79.39453 284 ft 1 kts 138°
2026-04-21 19:18 43.63222 -79.39421 256 ft 8 kts 121°
2026-04-21 19:18 43.63171 -79.39354 256 ft 11 kts 146°
2026-04-21 19:19 43.63111 -79.39342 256 ft 9 kts 203°
2026-04-21 19:19 43.63077 -79.39402 256 ft 8 kts 252°
2026-04-21 19:19 43.63058 -79.39482 256 ft 10 kts 250°
2026-04-21 19:19 43.63030 -79.39594 256 ft 14 kts 250°
2026-04-21 19:20 43.62989 -79.39737 256 ft 18 kts 253°
2026-04-21 19:20 43.62973 -79.39864 256 ft 13 kts 291°
2026-04-21 19:20 43.63017 -79.39997 255 ft 17 kts 291°
2026-04-21 19:20 43.63000 -79.40102 253 ft 11 kts 234°
2026-04-21 19:21 43.62938 -79.40199 252 ft 16 kts 218°
2026-04-21 19:21 43.62845 -79.40305 252 ft 13 kts 220°
2026-04-21 19:21 43.62783 -79.40324 252 ft 9 kts 150°
2026-04-21 19:21 43.62763 -79.40271 253 ft 1 kts 84°
2026-04-21 19:22 43.62778 -79.40200 254 ft 26 kts 71°
2026-04-21 19:22 43.62958 -79.39471 280 ft 122 kts 71°
2026-04-21 19:22 43.63224 -79.38395 1046 ft 117 kts 72°
2026-04-21 19:22 43.63512 -79.37279 1715 ft 136 kts 77°
2026-04-21 19:23 43.63831 -79.35956 2282 ft 152 kts 80°
2026-04-21 19:23 43.64036 -79.34490 2914 ft 163 kts 89°
2026-04-21 19:23 43.64223 -79.32791 3064 ft 187 kts 88°
2026-04-21 19:23 43.64459 -79.30961 2891 ft 200 kts 85°
2026-04-21 19:24 43.64314 -79.29150 2782 ft 187 kts 126°
2026-04-21 19:24 43.63356 -79.27902 2813 ft 205 kts 152°
2026-04-21 19:24 43.62004 -79.26968 3391 ft 228 kts 160°
2026-04-21 19:24 43.60525 -79.25931 4156 ft 246 kts 157°
2026-04-21 19:25 43.59046 -79.24734 5158 ft 254 kts 155°
2026-04-21 19:25 43.57487 -79.23468 6048 ft 266 kts 156°
2026-04-21 19:25 43.55847 -79.22178 6974 ft 276 kts 156°
2026-04-21 19:25 43.54150 -79.20847 7954 ft 285 kts 156°
2026-04-21 19:26 43.52401 -79.19467 8978 ft 295 kts 156°
2026-04-21 19:26 43.50589 -79.18037 9906 ft 305 kts 156°
2026-04-21 19:26 43.48698 -79.16551 10473 ft 324 kts 156°
2026-04-21 19:26 43.46654 -79.14952 10704 ft 352 kts 155°
2026-04-21 19:27 43.44577 -79.12901 10753 ft 386 kts 137°
2026-04-21 19:27 43.43165 -79.09804 11594 ft 388 kts 117°
2026-04-21 19:27 43.42082 -79.06391 12378 ft 393 kts 112°
2026-04-21 19:27 43.41070 -79.02870 13115 ft 398 kts 111°
2026-04-21 19:28 43.39997 -78.99333 13861 ft 404 kts 113°
2026-04-21 19:28 43.38851 -78.95783 14504 ft 408 kts 113°
2026-04-21 19:28 43.37712 -78.92189 15164 ft 413 kts 112°
2026-04-21 19:28 43.36594 -78.88531 15844 ft 417 kts 111°
2026-04-21 19:29 43.35457 -78.84844 16524 ft 422 kts 112°
2026-04-21 19:29 43.34299 -78.81178 17217 ft 426 kts 112°
2026-04-21 19:29 43.33112 -78.77419 17937 ft 431 kts 112°
2026-04-21 19:29 43.31926 -78.73619 18652 ft 436 kts 111°
2026-04-21 19:30 43.30724 -78.69771 19320 ft 440 kts 111°
2026-04-21 19:30 43.29503 -78.65895 20017 ft 445 kts 111°
2026-04-21 19:30 43.28266 -78.61980 20710 ft 449 kts 111°
2026-04-21 19:30 43.27020 -78.58027 21394 ft 454 kts 111°
2026-04-21 19:31 43.25760 -78.54032 22073 ft 458 kts 111°
2026-04-21 19:31 43.24485 -78.50004 22742 ft 463 kts 111°
2026-04-21 19:31 43.23194 -78.45931 23401 ft 468 kts 111°
2026-04-21 19:31 43.21919 -78.41915 23997 ft 473 kts 111°
2026-04-21 19:32 43.20600 -78.37765 24568 ft 477 kts 111°
2026-04-21 19:32 43.19203 -78.33623 25079 ft 483 kts 117°
2026-04-21 19:32 43.17335 -78.29775 25623 ft 487 kts 127°
2026-04-21 19:32 43.15188 -78.26171 26190 ft 490 kts 129°
2026-04-21 19:33 43.13747 -78.23774 26551 ft 493 kts 129°
2026-04-21 19:33 43.10831 -78.18879 27305 ft 499 kts 129°
2026-04-21 19:33 43.08629 -78.15180 27872 ft 503 kts 129°
2026-04-21 19:33 43.06433 -78.11516 28450 ft 508 kts 129°
2026-04-21 19:34 43.04181 -78.07771 29049 ft 512 kts 129°
2026-04-21 19:34 43.01912 -78.03987 29638 ft 517 kts 129°
2026-04-21 19:34 42.99624 -78.00172 30217 ft 522 kts 129°
2026-04-21 19:34 42.97310 -77.96327 30726 ft 526 kts 129°
2026-04-21 19:35 42.94980 -77.92462 31268 ft 529 kts 129°
2026-04-21 19:35 42.91129 -77.84020 32695 ft 522 kts 111°
2026-04-21 19:35 42.89918 -77.79384 33411 ft 516 kts 102°
2026-04-21 19:36 42.88997 -77.74733 34133 ft 514 kts 101°
2026-04-21 19:36 42.88058 -77.70037 34793 ft 513 kts 102°
2026-04-21 19:36 42.87111 -77.65365 35472 ft 510 kts 102°
2026-04-21 19:36 42.86172 -77.60709 36159 ft 507 kts 102°
2026-04-21 19:37 42.85245 -77.56085 36840 ft 505 kts 101°
2026-04-21 19:37 42.84317 -77.51483 37527 ft 502 kts 102°
2026-04-21 19:37 42.83387 -77.46904 38213 ft 500 kts 102°
2026-04-21 19:37 42.82459 -77.42347 38900 ft 498 kts 102°
2026-04-21 19:38 42.81552 -77.37880 39425 ft 496 kts 102°
2026-04-21 19:38 42.80631 -77.33351 39865 ft 497 kts 102°
2026-04-21 19:38 42.80005 -77.30288 40152 ft 497 kts 102°
2026-04-21 19:38 42.78773 -77.24284 40733 ft 498 kts 102°
2026-04-21 19:39 42.77839 -77.19733 41037 ft 502 kts 102°
2026-04-21 19:39 42.76890 -77.15106 41034 ft 514 kts 103°
2026-04-21 19:39 42.75916 -77.10381 41035 ft 524 kts 103°
2026-04-21 19:40 42.73940 -77.00861 41047 ft 521 kts 103°
2026-04-21 19:40 42.71991 -76.91470 41053 ft 517 kts 103°
2026-04-21 19:41 42.70029 -76.82088 41057 ft 515 kts 103°
2026-04-21 19:41 42.68071 -76.72751 41064 ft 512 kts 103°
2026-04-21 19:42 42.66067 -76.63474 41060 ft 512 kts 107°
2026-04-21 19:42 42.62812 -76.54858 41061 ft 514 kts 121°
2026-04-21 19:43 42.58925 -76.46796 41076 ft 513 kts 120°
2026-04-21 19:43 42.55336 -76.38418 41074 ft 519 kts 120°
2026-04-21 19:44 42.51433 -76.30012 41078 ft 533 kts 121°
2026-04-21 19:44 42.47567 -76.21314 41087 ft 544 kts 120°
2026-04-21 19:45 42.43576 -76.12599 41093 ft 551 kts 121°
2026-04-21 19:45 42.39552 -76.03714 41087 ft 556 kts 120°
2026-04-21 19:46 42.35471 -75.94782 41082 ft 560 kts 121°
2026-04-21 19:46 42.31365 -75.85812 41077 ft 562 kts 120°
2026-04-21 19:47 42.27245 -75.76828 41087 ft 563 kts 121°
2026-04-21 19:47 42.23131 -75.67903 41096 ft 564 kts 120°
2026-04-21 19:48 42.18983 -75.58910 41108 ft 565 kts 121°
2026-04-21 19:48 42.14851 -75.50000 41049 ft 542 kts 121°
2026-04-21 19:48 42.12896 -75.45790 40949 ft 517 kts 121°
2026-04-21 19:49 42.11023 -75.41758 40509 ft 502 kts 120°
2026-04-21 19:49 42.09249 -75.37941 39474 ft 497 kts 120°
2026-04-21 19:49 42.07436 -75.34054 37151 ft 485 kts 120°
2026-04-21 19:49 42.05708 -75.30102 34374 ft 508 kts 114°
2026-04-21 19:50 42.04619 -75.27228 32707 ft 511 kts 112°
2026-04-21 19:50 42.02533 -75.21556 29220 ft 515 kts 112°
2026-04-21 19:50 42.00919 -75.17249 27304 ft 517 kts 114°
2026-04-21 19:50 41.99297 -75.13035 26394 ft 498 kts 114°
2026-04-21 19:51 41.97733 -75.08921 25100 ft 491 kts 113°
2026-04-21 19:51 41.96214 -75.04847 23938 ft 484 kts 113°
2026-04-21 19:51 41.94709 -75.00849 22629 ft 476 kts 114°
2026-04-21 19:51 41.93230 -74.96984 21668 ft 463 kts 114°
2026-04-21 19:52 41.91807 -74.93274 21306 ft 436 kts 114°
2026-04-21 19:52 41.90427 -74.89616 20744 ft 445 kts 113°
2026-04-21 19:52 41.89034 -74.85923 20150 ft 442 kts 114°
2026-04-21 19:52 41.87632 -74.82265 19581 ft 438 kts 114°
2026-04-21 19:53 41.86240 -74.78644 19006 ft 434 kts 114°
2026-04-21 19:53 41.84873 -74.75061 18424 ft 430 kts 114°
2026-04-21 19:53 41.83521 -74.71514 17839 ft 424 kts 114°
2026-04-21 19:53 41.82186 -74.68033 17300 ft 417 kts 114°
2026-04-21 19:54 41.80881 -74.64641 16767 ft 412 kts 114°
2026-04-21 19:54 41.79579 -74.61249 16241 ft 407 kts 114°
2026-04-21 19:54 41.78174 -74.57986 15593 ft 405 kts 124°
2026-04-21 19:54 41.76089 -74.55362 14390 ft 420 kts 150°
2026-04-21 19:55 41.73491 -74.53879 14253 ft 392 kts 168°
2026-04-21 19:55 41.70868 -74.53526 13845 ft 371 kts 189°
2026-04-21 19:55 41.68360 -74.53956 13425 ft 362 kts 195°
2026-04-21 19:55 41.65829 -74.54488 12932 ft 374 kts 195°
2026-04-21 19:56 41.63215 -74.54995 12413 ft 385 kts 194°
2026-04-21 19:56 41.60563 -74.55468 11887 ft 393 kts 193°
2026-04-21 19:56 41.57834 -74.55971 11351 ft 399 kts 194°
2026-04-21 19:56 41.55106 -74.56495 10822 ft 386 kts 194°
2026-04-21 19:57 41.52535 -74.56972 10359 ft 362 kts 194°
2026-04-21 19:57 41.50111 -74.57422 9892 ft 342 kts 194°
2026-04-21 19:57 41.47822 -74.57858 9467 ft 323 kts 194°
2026-04-21 19:57 41.45649 -74.58274 9070 ft 309 kts 194°
2026-04-21 19:58 41.43560 -74.58669 8688 ft 298 kts 194°
2026-04-21 19:58 41.41567 -74.59043 8309 ft 288 kts 193°
2026-04-21 19:58 41.39662 -74.59631 7933 ft 277 kts 201°
2026-04-21 19:58 41.37809 -74.60364 7596 ft 279 kts 201°
2026-04-21 19:59 41.35948 -74.61079 7214 ft 278 kts 200°
2026-04-21 19:59 41.34089 -74.61772 6839 ft 277 kts 199°
2026-04-21 19:59 41.32220 -74.62308 6399 ft 276 kts 187°
2026-04-21 19:59 41.30353 -74.61813 6075 ft 272 kts 159°
2026-04-21 20:00 41.28851 -74.60426 6003 ft 261 kts 136°
2026-04-21 20:00 41.27867 -74.58398 5803 ft 261 kts 117°
2026-04-21 20:00 41.27089 -74.56264 5688 ft 259 kts 117°
2026-04-21 20:00 41.26303 -74.54127 5551 ft 256 kts 117°
2026-04-21 20:01 41.25516 -74.52021 5473 ft 252 kts 117°
2026-04-21 20:01 41.24739 -74.49932 5488 ft 253 kts 117°
2026-04-21 20:01 41.23956 -74.47824 5479 ft 256 kts 117°
2026-04-21 20:01 41.23156 -74.45678 5310 ft 267 kts 118°
2026-04-21 20:02 41.22600 -74.44184 5192 ft 270 kts 118°
2026-04-21 20:02 41.21533 -74.41310 4911 ft 249 kts 118°
2026-04-21 20:02 41.20777 -74.39284 4686 ft 245 kts 119°
2026-04-21 20:02 41.20022 -74.37270 4479 ft 249 kts 118°
2026-04-21 20:03 41.19252 -74.35210 4274 ft 249 kts 118°
2026-04-21 20:03 41.18485 -74.33152 4060 ft 248 kts 118°
2026-04-21 20:03 41.17668 -74.31147 3836 ft 246 kts 123°
2026-04-21 20:03 41.16817 -74.29179 3627 ft 245 kts 121°
2026-04-21 20:04 41.16011 -74.27189 3416 ft 245 kts 120°
2026-04-21 20:04 41.15183 -74.25217 3205 ft 245 kts 121°
2026-04-21 20:04 41.14348 -74.23272 3135 ft 237 kts 122°
2026-04-21 20:04 41.13549 -74.21399 3125 ft 230 kts 121°
2026-04-21 20:05 41.12787 -74.19607 3128 ft 225 kts 122°
2026-04-21 20:05 41.12015 -74.17796 3133 ft 226 kts 121°
2026-04-21 20:05 41.11240 -74.15976 3142 ft 228 kts 122°
2026-04-21 20:05 41.10449 -74.14126 3135 ft 234 kts 121°
2026-04-21 20:06 41.09467 -74.12436 2915 ft 230 kts 138°
2026-04-21 20:06 41.08280 -74.11069 2754 ft 221 kts 142°
2026-04-21 20:06 41.07134 -74.09762 2564 ft 216 kts 141°
2026-04-21 20:06 41.06036 -74.08454 2392 ft 215 kts 140°
2026-04-21 20:07 41.04930 -74.07130 2199 ft 214 kts 141°
2026-04-21 20:07 41.03817 -74.05808 2086 ft 216 kts 141°
2026-04-21 20:07 41.03030 -74.05015 2036 ft 204 kts 154°
2026-04-21 20:07 41.01241 -74.04766 2096 ft 193 kts 184°
2026-04-21 20:08 40.99896 -74.04869 2112 ft 194 kts 185°
2026-04-21 20:08 40.98545 -74.04968 2098 ft 194 kts 185°
2026-04-21 20:08 40.97194 -74.05064 2112 ft 194 kts 185°
2026-04-21 20:08 40.95818 -74.05167 2079 ft 200 kts 184°
2026-04-21 20:09 40.94431 -74.05260 1861 ft 200 kts 185°
2026-04-21 20:09 40.93215 -74.05345 1540 ft 167 kts 184°
2026-04-21 20:09 40.92123 -74.05420 1190 ft 149 kts 185°
2026-04-21 20:09 40.91120 -74.05494 843 ft 147 kts 184°
2026-04-21 20:10 40.90135 -74.05489 807 ft 131 kts 168°
2026-04-21 20:10 40.89371 -74.04988 782 ft 117 kts 150°
2026-04-21 20:10 40.88679 -74.04406 732 ft 120 kts 150°
2026-04-21 20:10 40.87934 -74.03921 624 ft 118 kts 167°
2026-04-21 20:11 40.87129 -74.03922 536 ft 115 kts 194°
2026-04-21 20:11 40.86443 -74.04429 386 ft 118 kts 222°
2026-04-21 20:11 40.85894 -74.05241 143 ft 116 kts 226°
2026-04-21 20:11 40.85383 -74.05977 13 ft 98 kts 229°
2026-04-21 20:12 40.85012 -74.06536 12 ft 57 kts 228°
2026-04-21 20:12 40.84835 -74.06795 12 ft 29 kts 227°
2026-04-21 20:12 40.84748 -74.06922 12 ft 25 kts 228°
2026-04-21 20:12 40.84636 -74.06971 12 ft 12 kts 139°
2026-04-21 20:13 40.84613 -74.06904 12 ft 7 kts 48°
2026-04-21 20:13 40.84671 -74.06821 12 ft 18 kts 47°
2026-04-21 20:13 40.84771 -74.06671 12 ft 23 kts 47°
2026-04-21 20:13 40.84867 -74.06533 12 ft 14 kts 48°
2026-04-21 20:14 40.84905 -74.06532 12 ft 7 kts 307°
2026-04-21 20:14 40.84964 -74.06630 12 ft 19 kts 308°
2026-04-21 20:14 40.85056 -74.06687 12 ft 16 kts 38°
2026-04-21 20:14 40.85150 -74.06551 12 ft 20 kts 47°
2026-04-21 20:15 40.85225 -74.06572 12 ft 11 kts 308°
2026-04-21 20:15 40.85197 -74.06635 12 ft 7 kts 203°
2026-04-21 20:15 40.85166 -74.06618 12 ft 0 kts 132°
2026-04-21 20:15 40.85166 -74.06617 12 ft 0 kts 132°